Lübeck Blankensee Airport

Jump to: basic info | weather | frequencies | runways | comments

Related pages: nearby airports | nearby navaids | notams | map

Basic information (top)

Codes: LBC EDHL
Location: lon 53.805401, lat 10.719200, elev 53 ft / 16 m msl
Status: medium_airport
Scheduled airline service: yes
Links: Wikipedia Mobile

Weather (top)

Current conditions (rec'd 2015/01/26 20:20Z):

EDHL 262020Z 30007KT 240V010 6000 BKN008 05/03 Q1010 RMK ATIS FOX

Airport forecast for Hamburg Airport 28nm (52km) WSW (rec'd 2015/01/26 18:27Z):

TAF EDDH 261700Z 2618/2724 29010KT 4500 -RADZ BKN004 
      BECMG 2618/2621 7000 BKN020 PROB40 
      TEMPO 2621/2706 4500 BR BKN008 
      TEMPO 2718/2724 20007KT 1200 BCFG PROB30 
      TEMPO 2718/2724 0400 FG BKN002

Frequencies (top)

Verify before use: may be inaccurate or out of date.

AFIS: 125.1 MHz (BREMEN INFO)
ATIS: 119.925 MHz (ATIS)
GND: 121.775 MHz (GND)
INFO: 128.7 MHz (INFO)
RDR: 124.225 MHz (BREMEN RADAR)
TWR: 128.7 MHz (TWR)

Runways (top)

07/25: 6,896 x 197 ft (2,102 x 60 m) — paved — lighted — threshold 07 displaced 984 ft (300 m)

Latest comments (top)

No comments yet for Lübeck Blankensee Airport

More... (top)

See also NOTAMs and nearby airports and navaids, or visit the Lübeck Blankensee Airport page at the main OurAirports website..